User: anonymous   Login
Location: Unspecified
(0.0000°N, 0.0000°E)
Time: 13:48:24
(UTC+00:00)
Language:

HORYU 4 - Orbit

View from above orbital plane
View from above orbital plane
View from above satellite
View from above satellite

Ground track
Ground track

The orbit data is extracted from the following two-line orbital elements,

1 41340U 16012D   17114.30691524 +.00001473 +00000-0 +10714-3 0  9997
2 41340 031.0050 091.5254 0014304 260.1435 099.7586 15.00537360064916
Epoch (UTC): 24 April 2017 07:21:57
Eccentricity: 0.0014304
inclination: 31.0050°
perigee height: 555 km
apogee height: 575 km
right ascension of ascending node: 91.5254°
argument of perigee: 260.1435°
revolutions per day: 15.00537360
mean anomaly at epoch: 99.7586°
orbit number at epoch: 6491

The dashed part of the orbit path shows where the satellite is in the earth's shadow,  

DLR